This is the latest recevied weather packets stored in our database for station/object K0APR. If no packets are shown the sender has not sent any weather packets the latest 10 day(s).
| Time | Temp. | Humidity | Pressure | Rain* | Wind** | Luminosity | Snow |
|---|---|---|---|---|---|---|---|
| 1777812661 | 11.11° C | 64% | 1009.8 hPa | 0 mm | - | 118 W/m² | - |
| 1777812357 | 11.11° C | 64% | 1009.5 hPa | 0 mm | - | 105 W/m² | - |
| 1777812055 | 10.56° C | 65% | 1009.2 hPa | 0 mm | - | 100 W/m² | - |
| 1777811754 | 10.56° C | 66% | 1009.5 hPa | 0 mm | - | 85 W/m² | - |
| 1777811449 | 10.56° C | 66% | 1009.2 hPa | 0 mm | - | 63 W/m² | - |
| 1777811146 | 10.56° C | 66% | 1009.2 hPa | 0 mm | - | 58 W/m² | - |
| 1777810843 | 10.56° C | 66% | 1009.2 hPa | 0 mm | - | 55 W/m² | - |
| 1777810540 | 10.56° C | 66% | 1009.2 hPa | 0 mm | - | 49 W/m² | - |
| 1777810237 | 10.56° C | 65% | 1009.2 hPa | 0 mm | - | 46 W/m² | - |
| 1777809933 | 10° C | 66% | 1008.8 hPa | 0 mm | - | 43 W/m² | - |
| 1777809632 | 10° C | 66% | 1008.4 hPa | 0 mm | - | 39 W/m² | - |
| 1777809328 | 10° C | 66% | 1008.4 hPa | 0 mm | - | 33 W/m² | - |
| 1777809026 | 10° C | 66% | 1008.4 hPa | 0 mm | - | 28 W/m² | - |
| 1777808723 | 9.44° C | 67% | 1008.4 hPa | 0 mm | - | 23 W/m² | - |
| 1777808420 | 9.44° C | 67% | 1008.4 hPa | 0 mm | - | 19 W/m² | - |
| 1777808118 | 9.44° C | 66% | 1008.4 hPa | 0 mm | - | 16 W/m² | - |
| 1777807816 | 9.44° C | 66% | 1008.4 hPa | 0 mm | - | 11 W/m² | - |
| 1777807514 | 9.44° C | 66% | 1008.1 hPa | 0 mm | - | 8 W/m² | - |
| 1777807209 | 9.44° C | 66% | 1008.1 hPa | 0 mm | - | 5 W/m² | - |
| 1777806906 | 9.44° C | 66% | 1008.1 hPa | 0 mm | - | 3 W/m² | - |
| 1777806603 | 9.44° C | 66% | 1007.7 hPa | 0 mm | - | 2 W/m² | - |
| 1777806298 | 9.44° C | 66% | 1007.7 hPa | 0 mm | - | 0 W/m² | - |
| 1777805995 | 10° C | 66% | 1007.7 hPa | 0 mm | - | 0 W/m² | - |
| 1777805692 | 10° C | 65% | 1008.1 hPa | 0 mm | - | 0 W/m² | - |
| 1777805389 | 10° C | 64% | 1007.7 hPa | 0 mm | - | 0 W/m² | - |
* Rain latest hour (hover to see other rain measurements)
** Current wind speed in m/s (hover to see current wind gust speed)